Home   Weather   Oral   Past weeks
Flag for Kazakhstan

Past Weather in Oral, Kazakhstan — Yesterday and Last 2 Weeks

Now
55 °F

Passing clouds.


Feels Like: 52 °F
Forecast: 60 / 39 °F
Wind: 13 mph from North

Location: Uralsk

Current Time: May 19, 2019 at 11:38:43 pm

Latest Report: May 19, 2019 at 11:00 pm


Visibility: N/A

Pressure: 29.86 "Hg

Humidity: 41%

Dew Point: 32 °F

Location of OralLocation

Past Weather in Oral — Graph

°F

Oral Temperature Yesterday

Maximum temperature yesterday: 68 °F (at 3:30 pm)
Minimum temperature yesterday: 37 °F (at 5:00 am)
Average temperature yesterday: 56 °F

High & Low Weather Summary for the Past Weeks

 TemperatureHumidityPressure
High93 °F (May 11, 3:00 pm)100% (May 8, 4:00 am)30.15 "Hg (May 8, 4:00 am)
Low37 °F (May 18, 5:00 am)14% (May 12, 4:30 pm)29.80 "Hg (May 6, 10:00 pm)
Average69 °F52%29.94 "Hg
* Reported May 4 10:00 pm — May 19 10:30 pm, Oral. Weather by CustomWeather, © 2019

Note: Actual official high and low records may vary slightly from our data, if they occured in-between our weather recording intervals... More about our weather records

Advertising

Oral Weather History for the Previous 24 Hours

Scroll right to see more
 ConditionsComfort  
Time TempWeatherWind HumidityBarometerVisibility
10:30 pm
Sun, May 19
55 °FSprinkles. Passing clouds.13 mph47%29.86 "HgN/A
10:00 pm57 °FPassing clouds.10 mph36%29.86 "HgN/A
9:30 pm55 °FPassing clouds.10 mph41%29.83 "HgN/A
9:00 pm57 °FPartly sunny.10 mph41%29.83 "HgN/A
8:30 pm59 °FPartly sunny.15 mph42%29.83 "HgN/A
8:00 pm61 °FPartly sunny.13 mph42%29.80 "HgN/A
7:30 pm63 °FPartly sunny.13 mph39%29.80 "HgN/A
7:00 pm63 °FPartly sunny.8 mph42%29.80 "HgN/A
6:30 pm64 °FPartly sunny.10 mph34%29.80 "HgN/A
6:00 pm64 °FPartly sunny.15 mph32%29.80 "HgN/A
5:30 pm66 °FPartly sunny.13 mph30%29.80 "HgN/A
5:00 pm66 °FPartly sunny.15 mph32%29.80 "HgN/A
4:30 pm64 °FPartly sunny.13 mph37%29.80 "HgN/A
4:00 pm64 °FPartly sunny.15 mph34%29.80 "HgN/A
3:30 pm66 °FSunny.15 mph32%29.80 "Hg10 mi
3:00 pm64 °FPassing clouds.15 mph34%29.80 "HgN/A
2:30 pm66 °FPassing clouds.13 mph32%29.83 "HgN/A
2:00 pm66 °FPassing clouds.13 mph30%29.83 "HgN/A
1:30 pm66 °FPassing clouds.13 mph28%29.83 "HgN/A
1:00 pm66 °FPassing clouds.10 mph30%29.83 "HgN/A
12:30 pm64 °FPassing clouds.13 mph32%29.83 "HgN/A
12:00 pm63 °FSunny.8 mph34%29.83 "Hg10 mi
11:30 am63 °FPassing clouds.6 mph34%29.86 "HgN/A
11:00 am61 °FPassing clouds.6 mph34%29.86 "HgN/A
10:30 am59 °FSunny.3 mph36%29.86 "Hg10 mi
10:00 am57 °FSunny.3 mph41%29.86 "Hg10 mi
9:30 am55 °FSunny.3 mph41%29.86 "Hg10 mi
9:00 am54 °FSunny.8 mph44%29.86 "Hg10 mi
8:30 am54 °FSunny.10 mph47%29.86 "Hg10 mi
8:00 am52 °FPassing clouds.10 mph50%29.86 "HgN/A
7:30 am50 °FSunny.8 mph62%29.86 "Hg10 mi
7:00 am48 °FSunny.6 mph66%29.86 "Hg10 mi
6:30 am46 °FSunny.6 mph71%29.86 "Hg10 mi
6:00 am45 °FSunny.8 mph81%29.83 "Hg10 mi
5:30 am46 °FClear.8 mph76%29.83 "Hg10 mi
5:00 am45 °FClear.6 mph87%29.83 "Hg10 mi
4:30 am43 °FClear.6 mph87%29.83 "Hg10 mi
4:00 am45 °FClear.6 mph81%29.83 "Hg10 mi
3:00 am48 °FClear.6 mph76%29.83 "Hg10 mi
2:30 am52 °FPartly cloudy.6 mph67%29.83 "HgN/A
2:00 am57 °FPartly cloudy.10 mph55%29.83 "HgN/A
1:30 am57 °FPartly cloudy.8 mph55%29.80 "HgN/A
1:00 am55 °FPartly cloudy.6 mph59%29.80 "HgN/A
12:30 am55 °FPartly cloudy.3 mph59%29.80 "HgN/A
12:00 am59 °FPartly cloudy.8 mph51%29.80 "HgN/A
11:30 pm
Sat, May 18
59 °FClear.8 mph48%29.80 "Hg10 mi
11:00 pm59 °FClear.10 mph48%29.80 "Hg10 mi
Weather by CustomWeather, © 2019

See weather overview